Weather History for Whiting Fld NAS, FL

Change the Weather History Date:

Saturday, May 11, 2013

  Actual Average Record
Temperature  
Mean Temperature 68 °F -  
Max Temperature 75 °F 82 °F 93 °F (2011)
Min Temperature 60 °F 61 °F 48 °F (1997)
Cooling Degree Days 2    
Growing Degree Days 18 (Base 50)    
Moisture  
Dew Point 62 °F    
Average Humidity 84    
Maximum Humidity 94    
Minimum Humidity 65    
Precipitation  
Precipitation 0.20 in - - ()
Sea Level Pressure  
Sea Level Pressure 29.99 in    
Wind  
Wind Speed 2 mph (SW)    
Max Wind Speed 13 mph    
Max Gust Speed -    
Visibility 7 miles    
Events Fog , Rain , Thunderstorm    
Averages and records for this station are not official NWS values.
T = Trace of Precipitation, MM = Missing Value Source: NWS Daily Summary

Daily Weather History Graph

Daily Weather History Graph

Search for Another Location

Airport:

Trip Planner

Search our weather history database for the weather conditions in past years. The results will help you decide how hot, cold, wet, or windy it might be!

Date:

Astronomy

May. 11, 2013 Rise Set
Actual Time 5:55 AM CDT 7:33 PM CDT
Civil Twilight 5:29 AM CDT 7:59 PM CDT
Nautical Twilight 4:58 AM CDT 8:31 PM CDT
Astronomical Twilight 4:25 AM CDT 9:04 PM CDT
Moon 7:05 AM CDT (5/11) 9:11 PM CDT (5/11)
Length of Visible Light 14h 30m
Length of Day
13h 37m
Waxing Crescent, 3% of the Moon is Illuminated
May 11
Waxing Crescent
May 17
First Quarter
May 24
Full
May 31
Last Quarter
Jun 8
New

Hourly Weather History & Observations

Time (CDT) Temp. Dew Point Humidity Pressure Visibility Wind Dir Wind Speed Gust Speed Precip Events Conditions
12:56 AM 66.0 °F 61.0 °F 84% 30.00 in 10.0 mi North 3.5 mph - N/A   Clear
1:56 AM 64.9 °F 61.0 °F 87% 29.99 in 9.0 mi Calm Calm - N/A   Clear
2:21 AM 60.8 °F 59.0 °F 94% 30.01 in 1.5 mi Calm Calm - N/A   Clear
2:29 AM 62.6 °F 59.0 °F 88% 30.01 in 0.5 mi Calm Calm - N/A Fog Fog
2:36 AM 60.8 °F 57.2 °F 88% 30.01 in 2.0 mi Calm Calm - N/A   Clear
2:44 AM 60.8 °F 57.2 °F 88% 30.00 in 0.8 mi Calm Calm - N/A   Clear
2:56 AM 61.0 °F 57.9 °F 90% 29.96 in 0.2 mi Calm Calm - N/A Fog Fog
3:22 AM 60.8 °F 57.2 °F 88% 29.99 in 1.0 mi Calm Calm - N/A   Clear
3:26 AM 60.8 °F 57.2 °F 88% 30.00 in 3.0 mi Calm Calm - N/A   Clear
3:56 AM 60.1 °F 57.0 °F 90% 29.94 in 9.0 mi South 4.6 mph - N/A   Clear
4:56 AM 60.1 °F 57.0 °F 90% 29.94 in 7.0 mi Calm Calm - N/A   Clear
5:56 AM 61.0 °F 57.9 °F 90% 29.95 in 2.5 mi Calm Calm - N/A   Clear
6:03 AM 60.8 °F 57.2 °F 88% 29.99 in 1.0 mi Calm Calm - N/A   Clear
6:15 AM 60.8 °F 57.2 °F 88% 30.00 in 0.5 mi Calm Calm - N/A Fog Fog
6:23 AM 60.8 °F 57.2 °F 88% 29.99 in 2.0 mi Calm Calm - N/A   Clear
6:39 AM 60.8 °F 57.2 °F 88% 30.00 in 4.0 mi Calm Calm - N/A   Clear
6:56 AM 64.0 °F 61.0 °F 90% 29.96 in 6.0 mi Calm Calm - N/A   Clear
7:56 AM 66.0 °F 62.1 °F 87% 29.98 in 8.0 mi Calm Calm - N/A   Clear
8:56 AM 68.0 °F 64.0 °F 87% 30.01 in 7.0 mi SW 4.6 mph - 0.00 in Rain Light Rain
9:19 AM 68.0 °F 64.4 °F 88% 30.08 in 2.0 mi West 6.9 mph - 0.04 in Rain Rain
9:28 AM 68.0 °F 64.4 °F 88% 30.08 in 1.8 mi WSW 8.1 mph - 0.07 in Rain Rain
9:56 AM 66.9 °F 63.0 °F 87% 30.03 in 2.5 mi WSW 4.6 mph - 0.20 in Rain Rain
10:08 AM 66.2 °F 62.6 °F 88% 30.05 in 5.0 mi SW 4.6 mph - 0.00 in Rain Light Rain
10:56 AM 68.0 °F 64.9 °F 90% 29.96 in 6.0 mi SE 5.8 mph - 0.00 in Rain Light Rain
11:16 AM 69.8 °F 66.2 °F 88% 30.00 in 8.0 mi SSE 10.4 mph - 0.00 in Rain , Thunderstorm Light Thunderstorms and Rain
11:32 AM 69.8 °F 66.2 °F 88% 30.00 in 10.0 mi SSE 12.7 mph - 0.00 in   Mostly Cloudy
11:42 AM 69.8 °F 66.2 °F 88% 30.01 in 8.0 mi South 11.5 mph - 0.00 in   Mostly Cloudy
11:56 AM 69.1 °F 66.9 °F 93% 29.99 in 10.0 mi SSW 6.9 mph - 0.00 in   Mostly Cloudy
12:27 PM 69.8 °F 68.0 °F 94% 30.03 in 10.0 mi West 3.5 mph - N/A   Overcast
12:56 PM 72.0 °F 64.9 °F 78% 29.98 in 10.0 mi Calm Calm - N/A   Scattered Clouds
1:37 PM 73.4 °F 64.4 °F 73% 30.03 in 10.0 mi Calm Calm - N/A   Mostly Cloudy
1:56 PM 73.0 °F 64.0 °F 73% 29.99 in 10.0 mi Calm Calm - N/A   Overcast
2:41 PM 73.4 °F 64.4 °F 73% 30.00 in 10.0 mi South 3.5 mph - 0.00 in   Mostly Cloudy
2:51 PM 73.4 °F 62.6 °F 69% 30.00 in 10.0 mi Calm Calm - 0.00 in   Mostly Cloudy
2:56 PM 73.9 °F 64.0 °F 71% 29.96 in 10.0 mi Calm Calm - 0.00 in   Mostly Cloudy
3:48 PM 75.2 °F 62.6 °F 65% 29.98 in 10.0 mi WNW 5.8 mph - N/A   Mostly Cloudy
3:56 PM 75.0 °F 63.0 °F 66% 29.94 in 10.0 mi West 4.6 mph - N/A   Mostly Cloudy
4:15 PM 75.2 °F 62.6 °F 65% 29.98 in 10.0 mi WSW 3.5 mph - N/A   Mostly Cloudy
4:56 PM 75.0 °F 64.0 °F 69% 29.94 in 10.0 mi SW 4.6 mph - N/A   Partly Cloudy
5:56 PM 73.0 °F 64.0 °F 73% 29.92 in 10.0 mi SSE 8.1 mph - N/A   Clear
6:56 PM 71.1 °F 64.0 °F 78% 29.93 in 10.0 mi SSW 4.6 mph - N/A   Partly Cloudy
7:56 PM 69.1 °F 64.0 °F 84% 29.96 in 10.0 mi SW 5.8 mph - N/A   Clear
8:56 PM 68.0 °F 64.0 °F 87% 29.97 in 10.0 mi SW 3.5 mph - N/A   Clear
9:56 PM 66.9 °F 63.0 °F 87% 29.98 in 10.0 mi Calm Calm - N/A   Clear
10:56 PM 66.0 °F 62.1 °F 87% 29.98 in 9.0 mi WSW 4.6 mph - N/A   Clear
11:56 PM 66.0 °F 63.0 °F 90% 29.98 in 9.0 mi West 4.6 mph - N/A   Clear